| time (UTC) | temp F | wind direction | speed knots | gust knots | rain 1hr in | rain 24hr in | rain mn in | humidity % | barometer mb |
| 20260905123516 | 70 | 207 | 2.6 | 6.1 | 0.00 | 0.00 | 0.00 | 78 | 1026.1 |
| 20260905123016 | 70 | 286 | 0.9 | 7.0 | 0.00 | 0.00 | 0.00 | 78 | 1026.1 |
| 20260905122518 | 70 | 33 | 2.6 | 7.8 | 0.00 | 0.00 | 0.00 | 78 | 1026.1 |
| 20260905122014 | 70 | 355 | 1.7 | 7.8 | 0.00 | 0.00 | 0.00 | 79 | 1026.0 |
| 20260905121517 | 70 | 249 | 1.7 | 5.2 | 0.00 | 0.00 | 0.00 | 79 | 1026.0 |
| 20260905121014 | 70 | 196 | 1.7 | 7.0 | 0.00 | 0.00 | 0.00 | 79 | 1026.1 |
| 20260905120514 | 70 | 196 | 2.6 | 7.0 | 0.00 | 0.00 | 0.00 | 79 | 1026.1 |
| 20260905120013 | 70 | 227 | 2.6 | 7.0 | 0.00 | 0.00 | 0.00 | 79 | 1026.0 |
| 20260905115516 | 70 | 78 | 0.9 | 7.0 | 0.00 | 0.00 | 0.00 | 78 | 1026.0 |
| 20260905115013 | 70 | 329 | 2.6 | 7.8 | 0.00 | 0.00 | 0.00 | 78 | 1026.0 |
| 20260905114512 | 70 | 188 | 1.7 | 9.6 | 0.00 | 0.00 | 0.00 | 78 | 1025.9 |
| 20260905114012 | 70 | 331 | 2.6 | 8.7 | 0.00 | 0.00 | 0.00 | 78 | 1025.9 |
| 20260905113513 | 70 | 294 | 2.6 | 8.7 | 0.00 | 0.00 | 0.00 | 78 | 1025.8 |
| 20260905113012 | 71 | 258 | 0.9 | 8.7 | 0.00 | 0.00 | 0.00 | 77 | 1025.8 |
| 20260905112510 | 72 | 315 | 2.6 | 7.0 | 0.00 | 0.00 | 0.00 | 75 | 1025.8 |
| 20260905112010 | 72 | 341 | 1.7 | 9.6 | 0.00 | 0.00 | 0.00 | 74 | 1025.7 |
| 20260905111509 | 73 | 360 | 2.6 | 9.6 | 0.00 | 0.00 | 0.00 | 72 | 1025.7 |
| 20260905111009 | 74 | 232 | 1.7 | 6.1 | 0.00 | 0.00 | 0.00 | 69 | 1025.5 |
| 20260905110511 | 75 | 321 | 1.7 | 5.2 | 0.00 | 0.00 | 0.00 | 68 | 1025.4 |
| 20260905110107 | 75 | 268 | 1.7 | 5.2 | 0.00 | 0.00 | 0.00 | 66 | 1025.3 |
| 20260905105507 | 75 | 101 | 0.0 | 5.2 | 0.00 | 0.00 | 0.00 | 64 | 1025.2 |
| 20260905105005 | 76 | 346 | 1.7 | 5.2 | 0.00 | 0.00 | 0.00 | 64 | 1025.2 |
| 20260905104505 | 76 | 119 | 0.9 | 4.3 | 0.00 | 0.00 | 0.00 | 64 | 1025.0 |
| 20260905104005 | 76 | 299 | 1.7 | 3.5 | 0.00 | 0.00 | 0.00 | 65 | 1025.1 |
| 20260905103505 | 76 | 183 | 0.9 | 6.1 | 0.00 | 0.00 | 0.00 | 66 | 1025.1 |
| 20260905103004 | 75 | 246 | 0.0 | 3.5 | 0.00 | 0.00 | 0.00 | 66 | 1025.0 |
| 20260905102502 | 75 | 107 | 0.9 | 7.0 | 0.00 | 0.00 | 0.00 | 66 | 1025.0 |
| 20260905102002 | 75 | 80 | 0.0 | 4.3 | 0.00 | 0.00 | 0.00 | 67 | 1025.0 |
| 20260905101502 | 75 | 103 | 0.9 | 6.1 | 0.00 | 0.00 | 0.00 | 68 | 1025.0 |
| 20260905101100 | 75 | 63 | 1.7 | 6.1 | 0.00 | 0.00 | 0.00 | 68 | 1025.0 |
| 20260905100559 | 74 | 79 | 0.0 | 2.6 | 0.00 | 0.00 | 0.00 | 69 | 1024.9 |
| 20260905100105 | 74 | 195 | 0.0 | 5.2 | 0.00 | 0.00 | 0.00 | 70 | 1024.9 |
| 20260905095558 | 74 | 115 | 0.9 | 5.2 | 0.00 | 0.00 | 0.00 | 70 | 1025.0 |
| 20260905095057 | 74 | 303 | 0.0 | 2.6 | 0.00 | 0.00 | 0.00 | 70 | 1024.9 |
| 20260905094607 | 74 | 302 | 0.9 | 2.6 | 0.00 | 0.00 | 0.00 | 70 | 1024.9 |
| 20260905094057 | 74 | 301 | 0.9 | 2.6 | 0.00 | 0.00 | 0.00 | 70 | 1024.9 |
| 20260905093556 | 74 | 281 | 0.9 | 2.6 | 0.00 | 0.00 | 0.00 | 70 | 1024.9 |
| 20260905093056 | 74 | 245 | 0.0 | 3.5 | 0.00 | 0.00 | 0.00 | 70 | 1024.9 |
| 20260905092556 | 74 | 246 | 0.9 | 3.5 | 0.00 | 0.00 | 0.00 | 70 | 1024.9 |
| 20260905092055 | 74 | 335 | 0.9 | 2.6 | 0.00 | 0.00 | 0.00 | 70 | 1024.8 |
| 20260905091606 | 74 | 190 | 0.0 | 2.6 | 0.00 | 0.00 | 0.00 | 70 | 1024.8 |
| 20260905091054 | 74 | 190 | 0.0 | 4.3 | 0.00 | 0.00 | 0.00 | 70 | 1024.9 |
| 20260905090553 | 74 | 134 | 0.9 | 4.3 | 0.00 | 0.00 | 0.00 | 70 | 1024.8 |
| 20260905090052 | 73 | 355 | 0.0 | 3.5 | 0.00 | 0.00 | 0.00 | 71 | 1024.6 |
| 20260905085552 | 73 | 71 | 0.0 | 1.7 | 0.00 | 0.00 | 0.00 | 72 | 1024.6 |
| 20260905085054 | 73 | 71 | 0.0 | 1.7 | 0.00 | 0.00 | 0.00 | 73 | 1024.6 |
| 20260905084549 | 72 | 59 | 0.0 | 2.6 | 0.00 | 0.00 | 0.00 | 73 | 1024.6 |
| 20260905084050 | 72 | 46 | 0.0 | 2.6 | 0.00 | 0.00 | 0.00 | 73 | 1024.6 |
| 20260905083550 | 72 | 37 | 0.9 | 2.6 | 0.00 | 0.00 | 0.00 | 73 | 1024.6 |
| 20260905083047 | 72 | 65 | 0.0 | 2.6 | 0.00 | 0.00 | 0.00 | 74 | 1024.5 |
| 20260905082545 | 71 | 121 | 0.0 | 2.6 | 0.00 | 0.00 | 0.00 | 74 | 1024.5 |
| 20260905082049 | 71 | 121 | 0.0 | 2.6 | 0.00 | 0.00 | 0.00 | 74 | 1024.5 |
| 20260905081553 | 71 | 132 | 0.0 | 1.7 | 0.00 | 0.00 | 0.00 | 75 | 1024.3 |
| 20260905081044 | 71 | 132 | 0.0 | 1.7 | 0.00 | 0.00 | 0.00 | 74 | 1024.3 |
| 20260905080544 | 71 | 132 | 0.0 | 2.6 | 0.00 | 0.00 | 0.00 | 74 | 1024.1 |
| 20260905080053 | 71 | 130 | 0.9 | 2.6 | 0.00 | 0.00 | 0.00 | 74 | 1024.2 |
| 20260905075541 | 71 | 30 | 0.0 | 2.6 | 0.00 | 0.00 | 0.00 | 74 | 1024.3 |
| 20260905075043 | 71 | 30 | 0.0 | 2.6 | 0.00 | 0.00 | 0.00 | 74 | 1024.2 |
| 20260905074540 | 71 | 30 | 0.0 | 1.7 | 0.00 | 0.00 | 0.00 | 74 | 1024.1 |
| 20260905074040 | 71 | 30 | 0.0 | 2.6 | 0.00 | 0.00 | 0.00 | 75 | 1024.1 |
| 20260905073541 | 70 | 30 | 0.0 | 2.6 | 0.00 | 0.00 | 0.00 | 75 | 1024.1 |
| 20260905073045 | 70 | 67 | 0.0 | 0.0 | 0.00 | 0.00 | 0.00 | 75 | 1024.1 |
| 20260905072539 | 70 | 64 | 0.0 | 1.7 | 0.00 | 0.00 | 0.00 | 75 | 1024.0 |
| 20260905072040 | 70 | 64 | 0.0 | 2.6 | 0.00 | 0.00 | 0.00 | 75 | 1023.9 |
| 20260905071536 | 70 | 325 | 0.0 | 1.7 | 0.00 | 0.00 | 0.00 | 76 | 1023.8 |
| 20260905071038 | 70 | 319 | 0.0 | 0.9 | 0.00 | 0.00 | 0.00 | 76 | 1023.8 |
| 20260905070534 | 70 | 319 | 0.0 | 1.7 | 0.00 | 0.00 | 0.00 | 76 | 1023.7 |
| 20260905070044 | 70 | 318 | 0.0 | 1.7 | 0.00 | 0.00 | 0.00 | 76 | 1023.7 |
| 20260905065532 | 69 | 319 | 0.0 | 0.0 | 0.00 | 0.00 | 0.00 | 76 | 1023.7 |
| 20260905065034 | 69 | 319 | 0.0 | 0.0 | 0.00 | 0.00 | 0.00 | 76 | 1023.7 |
| 20260905064531 | 69 | 319 | 0.0 | 0.9 | 0.00 | 0.00 | 0.00 | 76 | 1023.6 |
| 20260905064033 | 69 | 319 | 0.0 | 3.5 | 0.00 | 0.00 | 0.00 | 76 | 1023.6 |
| 20260905063530 | 69 | 318 | 0.9 | 3.5 | 0.00 | 0.00 | 0.00 | 76 | 1023.5 |
| 20260905063032 | 69 | 97 | 0.0 | 0.0 | 0.00 | 0.00 | 0.00 | 76 | 1023.5 |
| 20260905062531 | 69 | 106 | 0.0 | 0.0 | 0.00 | 0.00 | 0.00 | 76 | 1023.4 |
| 20260905062027 | 69 | 101 | 0.0 | 0.0 | 0.00 | 0.00 | 0.00 | 77 | 1023.3 |
| 20260905061541 | 69 | 101 | 0.0 | 0.0 | 0.00 | 0.00 | 0.00 | 76 | 1023.3 |
| 20260905061026 | 68 | 101 | 0.0 | 5.2 | 0.00 | 0.00 | 0.00 | 77 | 1023.2 |
| 20260905060524 | 68 | 323 | 0.0 | 0.0 | 0.00 | 0.00 | 0.00 | 77 | 1023.2 |
| 20260905060023 | 68 | 323 | 0.0 | 0.0 | 0.00 | 0.00 | 0.00 | 77 | 1023.1 |
| 20260905055521 | 68 | 323 | 0.0 | 0.0 | 0.00 | 0.00 | 0.00 | 76 | 1023.1 |
| 20260905055022 | 68 | 323 | 0.0 | 0.0 | 0.00 | 0.00 | 0.00 | 77 | 1023.0 |
| 20260905054521 | 68 | 323 | 0.0 | 0.0 | 0.00 | 0.00 | 0.00 | 77 | 1023.0 |
| 20260905054020 | 68 | 323 | 0.0 | 0.0 | 0.00 | 0.00 | 0.00 | 77 | 1022.9 |
| 20260905053522 | 68 | 323 | 0.0 | 0.0 | 0.00 | 0.00 | 0.00 | 77 | 1022.9 |
| 20260905053022 | 68 | 323 | 0.0 | 0.0 | 0.00 | 0.00 | 0.00 | 77 | 1022.9 |
| 20260905052518 | 67 | 323 | 0.0 | 0.0 | 0.00 | 0.00 | 0.00 | 77 | 1022.8 |
| 20260905052019 | 67 | 323 | 0.0 | 0.0 | 0.00 | 0.00 | 0.00 | 77 | 1022.7 |
| 20260905051521 | 67 | 323 | 0.0 | 0.0 | 0.00 | 0.00 | 0.00 | 77 | 1022.7 |
| 20260905051016 | 67 | 300 | 0.0 | 1.7 | 0.00 | 0.00 | 0.00 | 76 | 1022.7 |
| 20260905050517 | 67 | 300 | 0.0 | 1.7 | 0.00 | 0.00 | 0.00 | 76 | 1022.6 |
| 20260905050016 | 67 | 298 | 0.0 | 1.7 | 0.00 | 0.00 | 0.00 | 76 | 1022.6 |
| 20260905045515 | 67 | 298 | 0.0 | 2.6 | 0.00 | 0.00 | 0.00 | 75 | 1022.5 |
| 20260905045014 | 68 | 298 | 0.0 | 3.5 | 0.00 | 0.00 | 0.00 | 75 | 1022.5 |
| 20260905044517 | 68 | 204 | 0.9 | 3.5 | 0.00 | 0.00 | 0.00 | 74 | 1022.4 |
| 20260905044014 | 68 | 255 | 0.0 | 3.5 | 0.00 | 0.00 | 0.00 | 74 | 1022.2 |
| 20260905043513 | 68 | 296 | 1.7 | 3.5 | 0.00 | 0.00 | 0.00 | 73 | 1022.0 |
| 20260905043013 | 68 | 175 | 0.0 | 1.7 | 0.00 | 0.00 | 0.00 | 73 | 1022.0 |
| 20260905042516 | 69 | 175 | 0.0 | 0.9 | 0.00 | 0.00 | 0.00 | 73 | 1022.0 |
| 20260905042012 | 69 | 175 | 0.0 | 1.7 | 0.00 | 0.00 | 0.00 | 73 | 1021.9 |
| 20260905041512 | 69 | 175 | 0.0 | 1.7 | 0.00 | 0.00 | 0.00 | 73 | 1021.9 |
| 20260905041013 | 69 | 175 | 0.0 | 0.0 | 0.00 | 0.00 | 0.00 | 73 | 1022.1 |
| 20260905040511 | 69 | 175 | 0.0 | 0.0 | 0.00 | 0.00 | 0.00 | 72 | 1022.1 |
| 20260905040017 | 69 | 175 | 0.0 | 0.0 | 0.00 | 0.00 | 0.00 | 72 | 1022.2 |
| 20260905035510 | 69 | 175 | 0.0 | 0.0 | 0.00 | 0.00 | 0.00 | 71 | 1022.1 |
| 20260905035010 | 69 | 175 | 0.0 | 0.0 | 0.00 | 0.00 | 0.00 | 70 | 1022.1 |
| 20260905034512 | 69 | 175 | 0.0 | 0.0 | 0.00 | 0.00 | 0.00 | 70 | 1022.1 |
| 20260905034009 | 70 | 175 | 0.0 | 0.0 | 0.00 | 0.00 | 0.00 | 69 | 1021.9 |
| 20260905033509 | 70 | 175 | 0.0 | 0.0 | 0.00 | 0.00 | 0.00 | 69 | 1021.9 |
| 20260905033009 | 70 | 175 | 0.0 | 0.0 | 0.00 | 0.00 | 0.00 | 69 | 1021.9 |
| 20260905032513 | 70 | 175 | 0.0 | 0.9 | 0.00 | 0.00 | 0.00 | 68 | 1021.8 |
| 20260905032008 | 70 | 175 | 0.0 | 0.9 | 0.00 | 0.00 | 0.00 | 68 | 1021.9 |
| 20260905031508 | 70 | 175 | 0.0 | 0.9 | 0.00 | 0.00 | 0.00 | 68 | 1022.0 |
| 20260905031007 | 70 | 175 | 0.0 | 2.6 | 0.00 | 0.00 | 0.00 | 68 | 1021.7 |
| 20260905030510 | 70 | 175 | 0.0 | 1.7 | 0.00 | 0.00 | 0.00 | 68 | 1021.7 |
| 20260905030007 | 71 | 175 | 0.0 | 1.7 | 0.00 | 0.00 | 0.00 | 67 | 1021.8 |
| 20260905025509 | 71 | 175 | 0.0 | 1.7 | 0.00 | 0.00 | 0.00 | 67 | 1021.7 |
| 20260905025009 | 71 | 175 | 0.0 | 1.7 | 0.00 | 0.00 | 0.00 | 67 | 1021.5 |
| 20260905024507 | 71 | 175 | 0.0 | 1.7 | 0.00 | 0.00 | 0.00 | 66 | 1021.6 |
| 20260905024009 | 71 | 175 | 0.0 | 3.5 | 0.00 | 0.00 | 0.00 | 66 | 1021.5 |
| 20260905023505 | 71 | 132 | 1.7 | 3.5 | 0.00 | 0.00 | 0.00 | 66 | 1021.5 |
| 20260905023005 | 71 | 360 | 0.9 | 4.3 | 0.00 | 0.00 | 0.00 | 66 | 1021.5 |
| 20260905022504 | 71 | 170 | 0.0 | 4.3 | 0.00 | 0.00 | 0.00 | 65 | 1021.2 |
| 20260905022007 | 71 | 142 | 0.0 | 1.7 | 0.00 | 0.00 | 0.00 | 65 | 1021.5 |
| 20260905021507 | 71 | 142 | 0.0 | 1.7 | 0.00 | 0.00 | 0.00 | 65 | 1021.4 |
| 20260905021004 | 71 | 143 | 0.0 | 3.5 | 0.00 | 0.00 | 0.00 | 65 | 1021.4 |
| 20260905020506 | 71 | 175 | 0.0 | 2.6 | 0.00 | 0.00 | 0.00 | 65 | 1021.5 |
| 20260905020004 | 71 | 174 | 0.0 | 2.6 | 0.00 | 0.00 | 0.00 | 65 | 1021.5 |
| 20260905015503 | 71 | 174 | 0.0 | 1.7 | 0.00 | 0.00 | 0.00 | 65 | 1021.5 |
| 20260905015004 | 71 | 174 | 0.0 | 2.6 | 0.00 | 0.00 | 0.00 | 65 | 1021.6 |
| 20260905014503 | 70 | 174 | 0.0 | 2.6 | 0.00 | 0.00 | 0.00 | 65 | 1021.4 |
| 20260905014003 | 70 | 174 | 0.0 | 2.6 | 0.00 | 0.00 | 0.00 | 66 | 1021.3 |
| 20260905013503 | 70 | 174 | 0.0 | 2.6 | 0.00 | 0.00 | 0.00 | 66 | 1021.3 |
| 20260905013001 | 70 | 144 | 0.0 | 1.7 | 0.00 | 0.00 | 0.00 | 67 | 1021.3 |
| 20260905012604 | 69 | 123 | 0.0 | 1.7 | 0.00 | 0.00 | 0.00 | 67 | 1021.2 |
| 20260905012100 | 69 | 123 | 0.0 | 2.6 | 0.00 | 0.00 | 0.00 | 68 | 1021.0 |
| 20260905011559 | 69 | 123 | 0.0 | 2.6 | 0.00 | 0.00 | 0.00 | 69 | 1021.0 |
| 20260905011101 | 69 | 29 | 0.0 | 2.6 | 0.00 | 0.00 | 0.00 | 70 | 1021.0 |
| 20260905010559 | 68 | 68 | 0.0 | 2.6 | 0.00 | 0.00 | 0.00 | 70 | 1021.1 |
| 20260905010106 | 68 | 68 | 0.0 | 2.6 | 0.00 | 0.00 | 0.00 | 70 | 1021.1 |
| 20260905005558 | 68 | 130 | 0.0 | 3.5 | 0.00 | 0.00 | 0.00 | 71 | 1021.1 |
| 20260905005058 | 68 | 223 | 0.0 | 0.0 | 0.00 | 0.00 | 0.00 | 72 | 1021.0 |
| 20260905004610 | 68 | 223 | 0.0 | 0.0 | 0.00 | 0.00 | 0.00 | 72 | 1021.0 |
| 20260905004058 | 69 | 223 | 0.0 | 0.0 | 0.00 | 0.00 | 0.00 | 72 | 1021.0 |
| 20260905003557 | 69 | 223 | 0.0 | 0.0 | 0.00 | 0.00 | 0.00 | 73 | 1021.0 |
| 20260905003057 | 69 | 315 | 0.0 | 0.0 | 0.00 | 0.00 | 0.00 | 73 | 1020.8 |
| 20260905002557 | 69 | 315 | 0.0 | 0.0 | 0.00 | 0.00 | 0.00 | 73 | 1020.7 |
| 20260905002100 | 69 | 315 | 0.0 | 1.7 | 0.00 | 0.00 | 0.00 | 73 | 1020.8 |
| 20260905001557 | 69 | 315 | 0.0 | 3.5 | 0.00 | 0.00 | 0.00 | 73 | 1020.8 |
| 20260905001056 | 68 | 314 | 1.7 | 3.5 | 0.00 | 0.00 | 0.00 | 73 | 1020.8 |
| 20260905000554 | 68 | 126 | 0.0 | 2.6 | 0.00 | 0.00 | 0.00 | 72 | 1020.5 |
| 20260905000054 | 68 | 127 | 0.0 | 2.6 | 0.00 | 0.00 | 0.00 | 73 | 1020.4 |
| 20260904235555 | 68 | 355 | 0.0 | 0.0 | 0.00 | 0.00 | 0.00 | 75 | 1020.4 |
| 20260904235055 | 68 | 355 | 0.0 | 0.0 | 0.00 | 0.00 | 0.00 | 75 | 1020.5 |
| 20260904234556 | 68 | 355 | 0.0 | 0.0 | 0.00 | 0.00 | 0.00 | 75 | 1020.5 |
| 20260904234054 | 68 | 355 | 0.0 | 0.0 | 0.00 | 0.00 | 0.00 | 75 | 1020.3 |
| 20260904233551 | 69 | 355 | 0.0 | 0.0 | 0.00 | 0.00 | 0.00 | 75 | 1020.3 |
| 20260904233053 | 69 | 355 | 0.0 | 0.0 | 0.00 | 0.00 | 0.00 | 75 | 1020.1 |
| 20260904232550 | 69 | 355 | 0.0 | 0.0 | 0.00 | 0.00 | 0.00 | 74 | 1020.1 |
| 20260904232049 | 69 | 355 | 0.0 | 0.0 | 0.00 | 0.00 | 0.00 | 74 | 1020.1 |
| 20260904231548 | 69 | 355 | 0.0 | 0.0 | 0.00 | 0.00 | 0.00 | 74 | 1020.0 |
| 20260904231048 | 69 | 355 | 0.0 | 0.0 | 0.00 | 0.00 | 0.00 | 74 | 1020.0 |
| 20260904230547 | 69 | 355 | 0.0 | 0.0 | 0.00 | 0.00 | 0.00 | 73 | 1020.0 |
| 20260904230046 | 70 | 355 | 0.0 | 0.0 | 0.00 | 0.00 | 0.00 | 73 | 1020.0 |
| 20260904225545 | 70 | 355 | 0.0 | 0.0 | 0.00 | 0.00 | 0.00 | 73 | 1019.9 |
| 20260904225046 | 70 | 355 | 0.0 | 0.0 | 0.00 | 0.00 | 0.00 | 73 | 1019.9 |
| 20260904224545 | 70 | 355 | 0.0 | 0.0 | 0.00 | 0.00 | 0.00 | 72 | 1019.9 |
| 20260904224047 | 70 | 355 | 0.0 | 0.0 | 0.00 | 0.00 | 0.00 | 72 | 1019.7 |
| 20260904223544 | 71 | 355 | 0.0 | 0.0 | 0.00 | 0.00 | 0.00 | 71 | 1019.8 |
| 20260904223041 | 71 | 355 | 0.0 | 0.0 | 0.00 | 0.00 | 0.00 | 71 | 1019.8 |
| 20260904222540 | 71 | 355 | 0.0 | 0.0 | 0.00 | 0.00 | 0.00 | 71 | 1019.7 |
| 20260904222044 | 71 | 355 | 0.0 | 0.0 | 0.00 | 0.00 | 0.00 | 71 | 1019.7 |
| 20260904221539 | 71 | 355 | 0.0 | 0.0 | 0.00 | 0.00 | 0.00 | 70 | 1019.7 |
| 20260904221038 | 72 | 355 | 0.0 | 0.0 | 0.00 | 0.00 | 0.00 | 70 | 1019.7 |
| 20260904220537 | 72 | 355 | 0.0 | 0.0 | 0.00 | 0.00 | 0.00 | 70 | 1019.7 |
| 20260904220055 | 72 | 355 | 0.0 | 0.0 | 0.00 | 0.00 | 0.00 | 69 | 1019.6 |
| 20260904215536 | 72 | 355 | 0.0 | 0.0 | 0.00 | 0.00 | 0.00 | 69 | 1019.6 |
| 20260904215037 | 72 | 355 | 0.0 | 0.0 | 0.00 | 0.00 | 0.00 | 68 | 1019.5 |
| 20260904214539 | 73 | 355 | 0.0 | 0.0 | 0.00 | 0.00 | 0.00 | 68 | 1019.5 |
| 20260904214034 | 73 | 355 | 0.0 | 0.0 | 0.00 | 0.00 | 0.00 | 67 | 1019.4 |
| 20260904213537 | 73 | 355 | 0.0 | 0.0 | 0.00 | 0.00 | 0.00 | 67 | 1019.4 |
| 20260904213035 | 73 | 355 | 0.0 | 1.7 | 0.00 | 0.00 | 0.00 | 66 | 1019.3 |
| 20260904212534 | 74 | 355 | 0.0 | 1.7 | 0.00 | 0.00 | 0.00 | 66 | 1019.4 |
| 20260904212034 | 74 | 355 | 0.0 | 1.7 | 0.00 | 0.00 | 0.00 | 65 | 1019.2 |
| 20260904211537 | 74 | 355 | 0.0 | 1.7 | 0.00 | 0.00 | 0.00 | 65 | 1019.3 |
| 20260904211037 | 74 | 355 | 0.0 | 1.7 | 0.00 | 0.00 | 0.00 | 64 | 1019.2 |
| 20260904210533 | 74 | 355 | 0.0 | 0.9 | 0.00 | 0.00 | 0.00 | 64 | 1019.1 |
| 20260904210042 | 75 | 355 | 0.0 | 0.9 | 0.00 | 0.00 | 0.00 | 64 | 1019.1 |
| 20260904205533 | 75 | 355 | 0.0 | 2.6 | 0.00 | 0.00 | 0.00 | 63 | 1019.1 |
| 20260904205036 | 75 | 355 | 0.0 | 2.6 | 0.00 | 0.00 | 0.00 | 62 | 1019.1 |
| 20260904204534 | 76 | 355 | 0.0 | 0.9 | 0.00 | 0.00 | 0.00 | 62 | 1019.1 |
| 20260904204032 | 76 | 355 | 0.0 | 0.0 | 0.00 | 0.00 | 0.00 | 61 | 1019.0 |
| 20260904203532 | 76 | 355 | 0.0 | 0.0 | 0.00 | 0.00 | 0.00 | 61 | 1019.0 |
| 20260904203044 | 76 | 355 | 0.0 | 0.0 | 0.00 | 0.00 | 0.00 | 60 | 1019.0 |
| 20260904202532 | 77 | 355 | 0.0 | 0.0 | 0.00 | 0.00 | 0.00 | 59 | 1019.1 |
| 20260904202031 | 77 | 355 | 0.0 | 0.0 | 0.00 | 0.00 | 0.00 | 58 | 1019.0 |
| 20260904201531 | 78 | 355 | 0.0 | 0.0 | 0.00 | 0.00 | 0.00 | 58 | 1019.0 |
| 20260904201031 | 78 | 355 | 0.0 | 0.0 | 0.00 | 0.00 | 0.00 | 57 | 1019.0 |
| 20260904200534 | 78 | 355 | 0.0 | 0.0 | 0.00 | 0.00 | 0.00 | 57 | 1019.0 |
| 20260904200031 | 79 | 355 | 0.0 | 0.0 | 0.00 | 0.00 | 0.00 | 57 | 1018.9 |
| 20260904195533 | 79 | 355 | 0.0 | 0.0 | 0.00 | 0.00 | 0.00 | 56 | 1018.8 |
| 20260904195031 | 79 | 355 | 0.0 | 0.0 | 0.00 | 0.00 | 0.00 | 55 | 1018.8 |
| 20260904194531 | 80 | 355 | 0.0 | 0.0 | 0.00 | 0.00 | 0.00 | 54 | 1018.8 |
| 20260904194030 | 80 | 355 | 0.0 | 0.0 | 0.00 | 0.00 | 0.00 | 53 | 1018.9 |
| 20260904193531 | 81 | 355 | 0.0 | 0.0 | 0.00 | 0.00 | 0.00 | 53 | 1018.8 |
| 20260904193032 | 81 | 355 | 0.0 | 0.0 | 0.00 | 0.00 | 0.00 | 53 | 1018.8 |
| 20260904192530 | 81 | 355 | 0.0 | 0.0 | 0.00 | 0.00 | 0.00 | 51 | 1018.9 |
| 20260904192029 | 82 | 355 | 0.0 | 0.0 | 0.00 | 0.00 | 0.00 | 51 | 1018.8 |
| 20260904191541 | 82 | 355 | 0.0 | 0.0 | 0.00 | 0.00 | 0.00 | 50 | 1018.8 |
| 20260904191029 | 82 | 355 | 0.0 | 0.0 | 0.00 | 0.00 | 0.00 | 50 | 1018.8 |
| 20260904190531 | 82 | 355 | 0.0 | 0.0 | 0.00 | 0.00 | 0.00 | 49 | 1018.7 |
| 20260904190036 | 83 | 355 | 0.0 | 0.0 | 0.00 | 0.00 | 0.00 | 49 | 1018.7 |
| 20260904185528 | 83 | 355 | 0.0 | 0.0 | 0.00 | 0.00 | 0.00 | 48 | 1018.6 |
| 20260904185028 | 83 | 360 | 0.0 | 0.0 | 0.00 | 0.00 | 0.00 | 48 | 1018.5 |
| 20260904184531 | 83 | 360 | 0.0 | 0.0 | 0.00 | 0.00 | 0.00 | 48 | 1018.5 |
| 20260904184029 | 84 | 360 | 0.0 | 0.9 | 0.00 | 0.00 | 0.00 | 47 | 1018.5 |
| 20260904183529 | 84 | 360 | 0.0 | 3.5 | 0.00 | 0.00 | 0.00 | 47 | 1018.4 |
| 20260904183028 | 84 | 360 | 0.0 | 3.5 | 0.00 | 0.00 | 0.00 | 47 | 1018.4 |
| 20260904182528 | 84 | 240 | 0.0 | 2.6 | 0.00 | 0.00 | 0.00 | 47 | 1018.3 |
| 20260904182028 | 84 | 271 | 0.0 | 2.6 | 0.00 | 0.00 | 0.00 | 47 | 1018.3 |
| 20260904181528 | 84 | 269 | 0.0 | 3.5 | 0.00 | 0.00 | 0.00 | 46 | 1018.3 |
| 20260904181027 | 85 | 178 | 0.0 | 3.5 | 0.00 | 0.00 | 0.00 | 46 | 1018.1 |
| 20260904180528 | 85 | 62 | 0.0 | 3.5 | 0.00 | 0.00 | 0.00 | 46 | 1018.1 |
| 20260904180027 | 85 | 285 | 0.0 | 3.5 | 0.00 | 0.00 | 0.00 | 46 | 1017.9 |
| 20260904175527 | 85 | 285 | 0.9 | 4.3 | 0.00 | 0.00 | 0.00 | 46 | 1017.9 |
| 20260904175027 | 85 | 169 | 0.9 | 4.3 | 0.00 | 0.00 | 0.00 | 46 | 1018.0 |
| 20260904174531 | 85 | 304 | 1.7 | 4.3 | 0.00 | 0.00 | 0.00 | 46 | 1017.9 |
| 20260904174027 | 86 | 324 | 0.9 | 4.3 | 0.00 | 0.00 | 0.00 | 45 | 1017.9 |
| 20260904173526 | 86 | 207 | 0.9 | 4.3 | 0.00 | 0.00 | 0.00 | 45 | 1017.8 |
| 20260904173037 | 86 | 250 | 1.7 | 4.3 | 0.00 | 0.00 | 0.00 | 45 | 1017.8 |
| 20260904172527 | 86 | 184 | 0.9 | 4.3 | 0.00 | 0.00 | 0.00 | 45 | 1017.8 |
| 20260904172026 | 86 | 190 | 1.7 | 4.3 | 0.00 | 0.00 | 0.00 | 44 | 1017.7 |
| 20260904171527 | 87 | 346 | 0.9 | 3.5 | 0.00 | 0.00 | 0.00 | 44 | 1017.6 |
| 20260904171026 | 87 | 313 | 0.0 | 4.3 | 0.00 | 0.00 | 0.00 | 44 | 1017.8 |
| 20260904170525 | 87 | 146 | 1.7 | 5.2 | 0.00 | 0.00 | 0.00 | 44 | 1017.7 |
| 20260904170038 | 87 | 301 | 1.7 | 5.2 | 0.00 | 0.00 | 0.00 | 43 | 1017.7 |
| 20260904165526 | 87 | 205 | 1.7 | 7.0 | 0.00 | 0.00 | 0.00 | 43 | 1017.6 |
| 20260904165025 | 87 | 225 | 0.9 | 7.0 | 0.00 | 0.00 | 0.00 | 43 | 1017.6 |
| 20260904164526 | 88 | 220 | 1.7 | 7.0 | 0.00 | 0.00 | 0.00 | 42 | 1017.6 |
| 20260904164025 | 88 | 225 | 0.9 | 7.0 | 0.00 | 0.00 | 0.00 | 42 | 1017.6 |
| 20260904163524 | 88 | 257 | 1.7 | 7.0 | 0.00 | 0.00 | 0.00 | 41 | 1017.6 |
| 20260904163024 | 88 | 322 | 1.7 | 7.8 | 0.00 | 0.00 | 0.00 | 41 | 1017.6 |
| 20260904162528 | 88 | 342 | 0.0 | 7.8 | 0.00 | 0.00 | 0.00 | 41 | 1017.7 |
| 20260904162023 | 88 | 264 | 0.9 | 7.8 | 0.00 | 0.00 | 0.00 | 41 | 1017.6 |
| 20260904161525 | 88 | 225 | 1.7 | 7.8 | 0.00 | 0.00 | 0.00 | 40 | 1017.7 |
| 20260904161023 | 89 | 273 | 1.7 | 7.0 | 0.00 | 0.00 | 0.00 | 40 | 1017.6 |
| 20260904160526 | 89 | 177 | 0.9 | 6.1 | 0.00 | 0.00 | 0.00 | 40 | 1017.7 |
| 20260904160023 | 89 | 169 | 1.7 | 6.1 | 0.00 | 0.00 | 0.00 | 40 | 1017.7 |
| 20260904155526 | 89 | 225 | 1.7 | 5.2 | 0.00 | 0.00 | 0.00 | 40 | 1017.7 |
| 20260904155022 | 89 | 328 | 1.7 | 4.3 | 0.00 | 0.00 | 0.00 | 40 | 1017.7 |
| 20260904154526 | 89 | 237 | 0.9 | 8.7 | 0.00 | 0.00 | 0.00 | 40 | 1017.7 |
| 20260904154027 | 89 | 180 | 2.6 | 8.7 | 0.00 | 0.00 | 0.00 | 40 | 1017.7 |
| 20260904153525 | 89 | 275 | 1.7 | 4.3 | 0.00 | 0.00 | 0.00 | 40 | 1017.7 |
| 20260904153022 | 89 | 238 | 1.7 | 4.3 | 0.00 | 0.00 | 0.00 | 40 | 1017.7 |
| 20260904152523 | 89 | 224 | 0.9 | 6.1 | 0.00 | 0.00 | 0.00 | 40 | 1017.7 |
| 20260904152022 | 89 | 311 | 1.7 | 6.1 | 0.00 | 0.00 | 0.00 | 40 | 1017.8 |
| 20260904151521 | 89 | 279 | 0.0 | 5.2 | 0.00 | 0.00 | 0.00 | 41 | 1017.7 |
| 20260904151021 | 89 | 339 | 0.0 | 5.2 | 0.00 | 0.00 | 0.00 | 40 | 1017.7 |
| 20260904150526 | 89 | 101 | 1.7 | 10.4 | 0.00 | 0.00 | 0.00 | 39 | 1017.7 |
| 20260904150031 | 89 | 69 | 0.9 | 10.4 | 0.00 | 0.00 | 0.00 | 40 | 1017.8 |
| 20260904145520 | 89 | 330 | 0.0 | 3.5 | 0.00 | 0.00 | 0.00 | 40 | 1017.7 |
| 20260904145020 | 89 | 168 | 0.9 | 3.5 | 0.00 | 0.00 | 0.00 | 40 | 1017.8 |
| 20260904144520 | 90 | 63 | 0.9 | 3.5 | 0.00 | 0.00 | 0.00 | 40 | 1017.8 |
| 20260904144022 | 90 | 184 | 1.7 | 4.3 | 0.00 | 0.00 | 0.00 | 40 | 1017.9 |
| 20260904143519 | 90 | 179 | 1.7 | 4.3 | 0.00 | 0.00 | 0.00 | 40 | 1018.0 |
| 20260904143019 | 90 | 114 | 0.9 | 3.5 | 0.00 | 0.00 | 0.00 | 40 | 1018.0 |
| 20260904142518 | 90 | 331 | 0.9 | 5.2 | 0.00 | 0.00 | 0.00 | 40 | 1018.1 |
| 20260904142018 | 90 | 68 | 0.9 | 7.0 | 0.00 | 0.00 | 0.00 | 40 | 1018.2 |
| 20260904141529 | 90 | 197 | 0.9 | 7.8 | 0.00 | 0.00 | 0.00 | 40 | 1018.2 |
| 20260904141015 | 90 | 72 | 2.6 | 7.8 | 0.00 | 0.00 | 0.00 | 40 | 1018.3 |
| 20260904140515 | 90 | 313 | 0.9 | 5.2 | 0.00 | 0.00 | 0.00 | 40 | 1018.4 |
| 20260904140036 | 90 | 339 | 1.7 | 5.2 | 0.00 | 0.00 | 0.00 | 40 | 1018.5 |
| 20260904135515 | 89 | 223 | 0.9 | 7.8 | 0.00 | 0.00 | 0.00 | 40 | 1018.4 |
| 20260904135014 | 89 | 234 | 1.7 | 7.8 | 0.00 | 0.00 | 0.00 | 40 | 1018.5 |
| 20260904134515 | 89 | 204 | 2.6 | 7.0 | 0.00 | 0.00 | 0.00 | 40 | 1018.6 |
| 20260904134013 | 89 | 11 | 2.6 | 7.0 | 0.00 | 0.00 | 0.00 | 41 | 1018.7 |
| 20260904133512 | 89 | 211 | 2.6 | 5.2 | 0.00 | 0.00 | 0.00 | 41 | 1018.8 |
| 20260904133013 | 90 | 243 | 0.9 | 4.3 | 0.00 | 0.00 | 0.00 | 41 | 1018.9 |
| 20260904132513 | 90 | 355 | 0.9 | 4.3 | 0.00 | 0.00 | 0.00 | 41 | 1018.9 |
| 20260904132012 | 90 | 209 | 1.7 | 7.8 | 0.00 | 0.00 | 0.00 | 40 | 1018.9 |
| 20260904131511 | 90 | 116 | 0.9 | 7.8 | 0.00 | 0.00 | 0.00 | 40 | 1018.9 |
| 20260904131012 | 90 | 88 | 1.7 | 6.1 | 0.00 | 0.00 | 0.00 | 39 | 1019.1 |
| 20260904130515 | 90 | 84 | 1.7 | 6.1 | 0.00 | 0.00 | 0.00 | 40 | 1019.0 |
| 20260904130010 | 90 | 138 | 1.7 | 9.6 | 0.00 | 0.00 | 0.00 | 39 | 1019.1 |
| 20260904125509 | 90 | 91 | 0.9 | 6.1 | 0.00 | 0.00 | 0.00 | 40 | 1019.2 |
| 20260904125009 | 90 | 18 | 1.7 | 6.1 | 0.00 | 0.00 | 0.00 | 40 | 1019.1 |
| 20260904124509 | 89 | 259 | 1.7 | 7.8 | 0.00 | 0.00 | 0.00 | 40 | 1019.2 |
| 20260904124008 | 89 | 109 | 0.9 | 7.8 | 0.00 | 0.00 | 0.00 | 41 | 1019.2 |